星链-30781 (STARLINK-30781 )

导读 | 星芒AI

STARLINK-30781 是 SpaceX Starlink 卫星互联网项目中的一颗低轨卫星。该卫星属于 Starlink 群体部署的一部分,旨在为全球用户提供高速、低延迟的宽带互联网服务。它运行在约 550 公里的轨道高度,配备先进通信设备,支持 Ku 和 Ka 频段传输。STARLINK-30781 于 2023 年发射,是 SpaceX 推进全球网络覆盖计划的重要组成部分,有助于提升偏远地区的网络接入能力。

基本信息
目录编号:
58123
目录名称:
STARLINK-30781
国际标识:
2023-162F
轨道中心:
EARTH
卫星名称:
星链-30781
卫星全名:
星链-30781 (STARLINK-30781 )
卫星状态:
在轨 (已飞行740 天)
发射日期:
2023-10-22 UTC
国别 :
美国 (US)
星等 :
--
轨道信息
数据来源 国际轨道数据
星历时间: 2025-10-30T21:09:16+0800
18小时前
查看轨道信息
半长轴: 6937.224km
偏心率: 0.0001436
轨道倾角: 43.004°
近地点辐角 265.585°
升交点赤经 120.214°
平近点角 94.483°
近地点: 558.092km
远地点: 560.086km
周期: 95.838分钟
每日圈数: 15.025338
详细信息
固有亮度:
5
最大亮度:
0.3
卫星平台:
Starlink v2.0 mini
覆盖范围:
全球
运营商:
太空探索技术公司
运营商所在国:
美国
制造商(研发单位):
太空探索技术公司
制造商所在国:
美国
使用方式:
暂无
卫星简介
星链(Starlink)计划是由太空探索技术公司(SpaceX)提出的一个巨型低轨卫星互联网星座项目,计划在2019年至2024年间在太空搭建由约1.2万颗卫星组成的“星链”网络,其中1584颗将部署在地球上空550千米处的近地轨道,并从2020年开始工作。该卫星仍在工作。
2D轨道图
3D轨道图
轨道高度分析图
轨道倾角分析图
轨道综合分析图
查看轨道综合分析图